Time,TemperatureF,DewpointF,PressureIn,WindDirection,WindDirectionDegrees,WindSpeedMPH,WindSpeedGustMPH,Humidity,HourlyPrecipIn,Conditions,Clouds,dailyrainin,SoftwareType,DateUTC
2013-08-08 00:01:00,58.0,57.4,30.40,SSW,202,1.0,5.0,98,0.00,,,0.00,Weather View 32 v70,2013-08-08 04:01:00,
2013-08-08 00:02:00,58.0,57.4,30.40,South,180,2.0,5.0,98,0.00,,,0.00,Weather View 32 v70,2013-08-08 04:02:00,
2013-08-08 00:03:00,58.0,57.4,30.40,South,180,3.0,5.0,98,0.00,,,0.00,Weather View 32 v70,2013-08-08 04:03:00,
2013-08-08 00:08:00,58.0,57.7,30.40,SSE,157,2.0,5.0,99,0.00,,,0.00,Weather View 32 v70,2013-08-08 04:08:00,
2013-08-08 00:13:00,58.0,57.7,30.40,SSE,157,3.0,5.0,99,0.00,,,0.00,Weather View 32 v70,2013-08-08 04:13:00,
2013-08-08 00:18:00,58.0,57.7,30.40,SSE,157,2.0,5.0,99,0.00,,,0.00,Weather View 32 v70,2013-08-08 04:18:00,
2013-08-08 00:23:00,57.0,56.7,30.40,SSE,157,1.0,5.0,99,0.00,,,0.00,Weather View 32 v70,2013-08-08 04:23:00,
2013-08-08 00:28:00,57.0,56.7,30.39,SSE,157,0.0,5.0,99,0.00,,,0.00,Weather View 32 v70,2013-08-08 04:28:00,
2013-08-08 00:33:00,58.0,57.7,30.39,West,270,1.0,5.0,99,0.00,,,0.00,Weather View 32 v70,2013-08-08 04:33:00,
2013-08-08 00:38:00,57.0,56.7,30.39,SSW,202,1.0,5.0,99,0.00,,,0.00,Weather View 32 v70,2013-08-08 04:38:00,
2013-08-08 00:43:00,57.0,56.7,30.39,SSW,202,0.0,5.0,99,0.00,,,0.00,Weather View 32 v70,2013-08-08 04:43:00,
2013-08-08 00:48:00,57.0,56.7,30.39,SSW,202,1.0,5.0,99,0.00,,,0.00,Weather View 32 v70,2013-08-08 04:48:00,
2013-08-08 00:53:00,57.0,56.7,30.39,SSW,202,1.0,5.0,99,0.00,,,0.00,Weather View 32 v70,2013-08-08 04:53:00,
2013-08-08 00:58:00,57.0,56.7,30.38,SSW,202,2.0,5.0,99,0.00,,,0.00,Weather View 32 v70,2013-08-08 04:58:00,
2013-08-08 01:03:00,57.0,56.7,30.38,SSW,202,0.0,5.0,99,0.00,,,0.00,Weather View 32 v70,2013-08-08 05:03:00,
2013-08-08 01:08:00,57.0,56.7,30.38,SSW,202,0.0,4.0,99,0.00,,,0.00,Weather View 32 v70,2013-08-08 05:08:00,
2013-08-08 01:13:00,57.0,56.7,30.38,SSW,202,2.0,4.0,99,0.00,,,0.00,Weather View 32 v70,2013-08-08 05:13:00,
2013-08-08 01:18:00,57.0,56.7,30.38,SSW,202,2.0,4.0,99,0.00,,,0.00,Weather View 32 v70,2013-08-08 05:18:00,
2013-08-08 01:23:00,57.0,56.7,30.38,South,180,1.0,4.0,99,0.00,,,0.00,Weather View 32 v70,2013-08-08 05:23:00,
2013-08-08 01:28:00,58.0,58.0,30.38,SSE,157,4.0,5.0,100,0.00,,,0.00,Weather View 32 v70,2013-08-08 05:28:00,
2013-08-08 01:33:00,58.0,58.0,30.38,SSE,157,4.0,6.0,100,0.00,,,0.00,Weather View 32 v70,2013-08-08 05:33:00,
2013-08-08 01:38:00,58.0,58.0,30.38,SSE,157,2.0,6.0,100,0.00,,,0.00,Weather View 32 v70,2013-08-08 05:38:00,
2013-08-08 01:43:00,58.0,58.0,30.38,SSE,157,2.0,6.0,100,0.00,,,0.00,Weather View 32 v70,2013-08-08 05:43:00,
2013-08-08 01:48:00,58.0,58.0,30.38,SSW,202,0.0,6.0,100,0.00,,,0.00,Weather View 32 v70,2013-08-08 05:48:00,
2013-08-08 01:53:00,58.0,58.0,30.37,SSW,202,2.0,6.0,100,0.00,,,0.00,Weather View 32 v70,2013-08-08 05:53:00,
2013-08-08 01:58:00,58.0,58.0,30.38,SSW,202,2.0,6.0,100,0.00,,,0.00,Weather View 32 v70,2013-08-08 05:58:00,
2013-08-08 02:03:00,58.0,58.0,30.38,SSW,202,1.0,6.0,100,0.00,,,0.00,Weather View 32 v70,2013-08-08 06:03:00,
2013-08-08 02:08:00,58.0,58.0,30.37,SSW,202,0.0,6.0,100,0.00,,,0.00,Weather View 32 v70,2013-08-08 06:08:00,
2013-08-08 02:13:00,58.0,57.7,30.37,SSW,202,0.0,6.0,99,0.00,,,0.00,Weather View 32 v70,2013-08-08 06:13:00,
2013-08-08 02:18:00,58.0,57.7,30.35,SSW,202,0.0,6.0,99,0.00,,,0.00,Weather View 32 v70,2013-08-08 06:18:00,
2013-08-08 02:23:00,58.0,57.7,30.37,South,180,1.0,6.0,99,0.00,,,0.00,Weather View 32 v70,2013-08-08 06:23:00,
2013-08-08 02:28:00,58.0,58.0,30.37,SSW,202,1.0,6.0,100,0.00,,,0.00,Weather View 32 v70,2013-08-08 06:28:00,
2013-08-08 02:33:00,58.0,58.0,30.37,SSW,202,2.0,5.0,100,0.00,,,0.00,Weather View 32 v70,2013-08-08 06:33:00,
2013-08-08 02:38:00,58.0,58.0,30.37,South,180,1.0,6.0,100,0.00,,,0.00,Weather View 32 v70,2013-08-08 06:38:00,
2013-08-08 02:43:00,58.0,58.0,30.37,South,180,2.0,6.0,100,0.00,,,0.00,Weather View 32 v70,2013-08-08 06:43:00,
2013-08-08 02:48:00,58.0,58.0,30.37,SSW,202,3.0,6.0,100,0.00,,,0.00,Weather View 32 v70,2013-08-08 06:48:00,
2013-08-08 02:53:00,58.0,58.0,30.37,SSW,202,0.0,6.0,100,0.00,,,0.00,Weather View 32 v70,2013-08-08 06:53:00,
2013-08-08 02:58:00,58.0,58.0,30.38,SSW,202,0.0,6.0,100,0.00,,,0.00,Weather View 32 v70,2013-08-08 06:58:00,
2013-08-08 03:03:00,58.0,58.0,30.37,SSW,202,0.0,6.0,100,0.00,,,0.00,Weather View 32 v70,2013-08-08 07:03:00,
2013-08-08 03:08:00,58.0,58.0,30.37,SSW,202,0.0,6.0,100,0.00,,,0.00,Weather View 32 v70,2013-08-08 07:08:00,
2013-08-08 03:13:00,58.0,58.0,30.37,SSW,202,3.0,6.0,100,0.00,,,0.00,Weather View 32 v70,2013-08-08 07:13:00,
2013-08-08 03:18:00,58.0,58.0,30.38,SSW,202,2.0,6.0,100,0.00,,,0.00,Weather View 32 v70,2013-08-08 07:18:00,
2013-08-08 03:23:00,59.0,59.0,30.37,SSE,157,2.0,6.0,100,0.00,,,0.00,Weather View 32 v70,2013-08-08 07:23:00,
2013-08-08 03:28:00,59.0,59.0,30.37,SSE,157,4.0,6.0,100,0.00,,,0.00,Weather View 32 v70,2013-08-08 07:28:00,
2013-08-08 03:34:00,60.0,60.0,30.37,SSE,157,6.0,6.0,100,0.00,,,0.00,Weather View 32 v70,2013-08-08 07:34:00,
2013-08-08 03:39:00,59.0,59.0,30.37,SSE,157,2.0,6.0,100,0.00,,,0.00,Weather View 32 v70,2013-08-08 07:39:00,
2013-08-08 03:44:00,60.0,60.0,30.37,SSE,157,2.0,6.0,100,0.00,,,0.00,Weather View 32 v70,2013-08-08 07:44:00,
2013-08-08 03:49:00,59.0,59.0,30.38,South,180,4.0,6.0,100,0.00,,,0.00,Weather View 32 v70,2013-08-08 07:49:00,
2013-08-08 03:54:00,60.0,60.0,30.36,South,180,5.0,6.0,100,0.00,,,0.00,Weather View 32 v70,2013-08-08 07:54:00,
2013-08-08 03:59:00,60.0,60.0,30.37,SSE,157,6.0,7.0,100,0.00,,,0.00,Weather View 32 v70,2013-08-08 07:59:00,
2013-08-08 04:04:00,60.0,60.0,30.37,SE,135,7.0,8.0,100,0.00,,,0.00,Weather View 32 v70,2013-08-08 08:04:00,
2013-08-08 04:09:00,59.0,59.0,30.38,SSW,202,5.0,8.0,100,0.00,,,0.00,Weather View 32 v70,2013-08-08 08:09:00,
2013-08-08 04:14:00,59.0,59.0,30.37,SSE,157,5.0,10.0,100,0.00,,,0.00,Weather View 32 v70,2013-08-08 08:14:00,
2013-08-08 04:19:00,57.0,57.0,30.37,SSE,157,3.0,10.0,100,0.00,,,0.00,Weather View 32 v70,2013-08-08 08:19:00,
2013-08-08 04:24:00,60.0,60.0,30.37,SSE,157,4.0,10.0,100,0.00,,,0.00,Weather View 32 v70,2013-08-08 08:24:00,
2013-08-08 04:29:00,60.0,60.0,30.38,SSE,157,5.0,10.0,100,0.00,,,0.00,Weather View 32 v70,2013-08-08 08:29:00,
2013-08-08 04:34:00,60.0,60.0,30.38,SSE,157,7.0,10.0,100,0.00,,,0.00,Weather View 32 v70,2013-08-08 08:34:00,
2013-08-08 04:39:00,60.0,60.0,30.37,SSE,157,5.0,10.0,100,0.00,,,0.00,Weather View 32 v70,2013-08-08 08:39:00,
2013-08-08 04:44:00,60.0,60.0,30.37,South,180,6.0,10.0,100,0.00,,,0.00,Weather View 32 v70,2013-08-08 08:44:00,
2013-08-08 04:49:00,60.0,60.0,30.37,SSE,157,7.0,10.0,100,0.00,,,0.00,Weather View 32 v70,2013-08-08 08:49:00,
2013-08-08 04:54:00,60.0,60.0,30.37,South,180,3.0,10.0,100,0.00,,,0.00,Weather View 32 v70,2013-08-08 08:54:00,
2013-08-08 04:59:00,60.0,60.0,30.37,South,180,4.0,10.0,100,0.00,,,0.00,Weather View 32 v70,2013-08-08 08:59:00,
2013-08-08 05:04:00,60.0,60.0,30.36,South,180,6.0,10.0,100,0.00,,,0.00,Weather View 32 v70,2013-08-08 09:04:00,
2013-08-08 05:09:00,60.0,60.0,30.37,South,180,5.0,10.0,100,0.00,,,0.00,Weather View 32 v70,2013-08-08 09:09:00,
2013-08-08 05:14:00,60.0,60.0,30.36,SSE,157,5.0,10.0,100,0.00,,,0.00,Weather View 32 v70,2013-08-08 09:14:00,
2013-08-08 05:19:00,60.0,60.0,30.36,SSE,157,5.0,10.0,100,0.00,,,0.00,Weather View 32 v70,2013-08-08 09:19:00,
2013-08-08 05:24:00,60.0,60.0,30.36,SE,135,6.0,10.0,100,0.00,,,0.00,Weather View 32 v70,2013-08-08 09:24:00,
2013-08-08 05:29:00,60.0,60.0,30.36,SSE,157,6.0,10.0,100,0.00,,,0.00,Weather View 32 v70,2013-08-08 09:29:00,
2013-08-08 05:34:00,60.0,60.0,30.36,South,180,6.0,10.0,100,0.00,,,0.00,Weather View 32 v70,2013-08-08 09:34:00,
2013-08-08 05:39:00,60.0,59.7,30.35,South,180,6.0,9.0,99,0.00,,,0.00,Weather View 32 v70,2013-08-08 09:39:00,
2013-08-08 05:44:00,60.0,59.7,30.36,SSE,157,6.0,9.0,99,0.00,,,0.00,Weather View 32 v70,2013-08-08 09:44:00,
2013-08-08 05:49:00,60.0,59.7,30.36,SSE,157,5.0,8.0,99,0.00,,,0.00,Weather View 32 v70,2013-08-08 09:49:00,
2013-08-08 05:54:00,60.0,59.4,30.36,SSE,157,4.0,9.0,98,0.00,,,0.00,Weather View 32 v70,2013-08-08 09:54:00,
2013-08-08 05:59:00,60.0,59.4,30.36,South,180,4.0,9.0,98,0.00,,,0.00,Weather View 32 v70,2013-08-08 09:59:00,
2013-08-08 06:04:00,60.0,59.4,30.37,SSW,202,6.0,9.0,98,0.00,,,0.00,Weather View 32 v70,2013-08-08 10:04:00,
2013-08-08 06:09:00,60.0,59.1,30.37,SSW,202,6.0,9.0,97,0.00,,,0.00,Weather View 32 v70,2013-08-08 10:09:00,
2013-08-08 06:14:00,60.0,59.1,30.37,SSW,202,5.0,9.0,97,0.00,,,0.00,Weather View 32 v70,2013-08-08 10:14:00,
2013-08-08 06:19:00,61.0,60.1,30.37,SSW,202,6.0,9.0,97,0.00,,,0.00,Weather View 32 v70,2013-08-08 10:19:00,
2013-08-08 06:24:00,61.0,59.8,30.36,SSW,202,9.0,9.0,96,0.00,,,0.00,Weather View 32 v70,2013-08-08 10:24:00,
2013-08-08 06:29:00,61.0,59.8,30.36,SSW,202,6.0,9.0,96,0.00,,,0.00,Weather View 32 v70,2013-08-08 10:29:00,
2013-08-08 06:35:00,61.0,59.6,30.37,South,180,7.0,10.0,95,0.00,,,0.00,Weather View 32 v70,2013-08-08 10:35:00,
2013-08-08 06:40:00,61.0,59.6,30.37,South,180,7.0,10.0,95,0.00,,,0.00,Weather View 32 v70,2013-08-08 10:40:00,
2013-08-08 06:45:00,62.0,60.5,30.37,SSE,157,3.0,10.0,95,0.00,,,0.00,Weather View 32 v70,2013-08-08 10:45:00,
2013-08-08 06:50:00,62.0,60.8,30.37,South,180,4.0,10.0,96,0.00,,,0.00,Weather View 32 v70,2013-08-08 10:50:00,
2013-08-08 06:55:00,62.0,60.5,30.38,South,180,3.0,10.0,95,0.00,,,0.00,Weather View 32 v70,2013-08-08 10:55:00,
2013-08-08 07:00:00,62.0,60.5,30.38,South,180,5.0,10.0,95,0.00,,,0.00,Weather View 32 v70,2013-08-08 11:00:00,
2013-08-08 07:05:00,62.0,60.5,30.38,SSW,202,7.0,10.0,95,0.00,,,0.00,Weather View 32 v70,2013-08-08 11:05:00,
2013-08-08 07:10:00,62.0,60.5,30.38,SSW,202,7.0,12.0,95,0.00,,,0.00,Weather View 32 v70,2013-08-08 11:10:00,
2013-08-08 07:15:00,62.0,60.2,30.38,South,180,6.0,12.0,94,0.00,,,0.00,Weather View 32 v70,2013-08-08 11:15:00,
2013-08-08 07:20:00,62.0,60.2,30.38,SSW,202,5.0,12.0,94,0.00,,,0.00,Weather View 32 v70,2013-08-08 11:20:00,
2013-08-08 07:25:00,62.0,60.2,30.38,SSW,202,1.0,12.0,94,0.00,,,0.00,Weather View 32 v70,2013-08-08 11:25:00,
2013-08-08 07:30:00,63.0,61.2,30.38,South,180,5.0,12.0,94,0.00,,,0.00,Weather View 32 v70,2013-08-08 11:30:00,
2013-08-08 07:35:00,63.0,61.2,30.38,South,180,7.0,12.0,94,0.00,,,0.00,Weather View 32 v70,2013-08-08 11:35:00,
2013-08-08 07:40:00,63.0,60.9,30.38,South,180,7.0,12.0,93,0.00,,,0.00,Weather View 32 v70,2013-08-08 11:40:00,
2013-08-08 07:45:00,63.0,61.2,30.39,South,180,5.0,12.0,94,0.00,,,0.00,Weather View 32 v70,2013-08-08 11:45:00,
2013-08-08 07:50:00,63.0,60.9,30.39,SSW,202,7.0,12.0,93,0.00,,,0.00,Weather View 32 v70,2013-08-08 11:50:00,
2013-08-08 07:55:00,64.0,62.2,30.39,SSW,202,3.0,12.0,94,0.00,,,0.00,Weather View 32 v70,2013-08-08 11:55:00,
2013-08-08 08:00:00,64.0,62.2,30.39,SSW,202,5.0,12.0,94,0.00,,,0.00,Weather View 32 v70,2013-08-08 12:00:00,
2013-08-08 08:05:00,64.0,61.9,30.39,South,180,9.0,12.0,93,0.00,,,0.00,Weather View 32 v70,2013-08-08 12:05:00,
2013-08-08 08:10:00,64.0,62.2,30.39,SSE,157,5.0,12.0,94,0.00,,,0.00,Weather View 32 v70,2013-08-08 12:10:00,
2013-08-08 08:15:00,63.0,61.2,30.39,SSW,202,2.0,12.0,94,0.00,,,0.00,Weather View 32 v70,2013-08-08 12:15:00,
2013-08-08 08:20:00,63.0,61.2,30.39,SW,225,3.0,12.0,94,0.00,,,0.00,Weather View 32 v70,2013-08-08 12:20:00,
2013-08-08 08:25:00,62.0,60.8,30.39,SSW,202,4.0,12.0,96,0.00,,,0.00,Weather View 32 v70,2013-08-08 12:25:00,
2013-08-08 08:30:00,64.0,62.5,30.39,South,180,2.0,12.0,95,0.00,,,0.00,Weather View 32 v70,2013-08-08 12:30:00,
2013-08-08 08:35:00,63.0,61.2,30.39,SW,225,5.0,12.0,94,0.00,,,0.00,Weather View 32 v70,2013-08-08 12:35:00,
2013-08-08 08:40:00,63.0,61.5,30.39,SSE,157,4.0,12.0,95,0.00,,,0.00,Weather View 32 v70,2013-08-08 12:40:00,
2013-08-08 08:45:00,63.0,61.5,30.39,South,180,4.0,12.0,95,0.00,,,0.00,Weather View 32 v70,2013-08-08 12:45:00,
2013-08-08 08:50:00,64.0,62.5,30.39,SW,225,4.0,12.0,95,0.00,,,0.00,Weather View 32 v70,2013-08-08 12:50:00,
2013-08-08 08:55:00,64.0,62.5,30.39,SW,225,7.0,12.0,95,0.00,,,0.00,Weather View 32 v70,2013-08-08 12:55:00,
2013-08-08 09:00:00,63.0,61.5,30.39,SSW,202,8.0,12.0,95,0.00,,,0.00,Weather View 32 v70,2013-08-08 13:00:00,
2013-08-08 09:05:00,63.0,61.8,30.39,SW,225,5.0,12.0,96,0.00,,,0.00,Weather View 32 v70,2013-08-08 13:05:00,
2013-08-08 09:10:00,63.0,61.8,30.40,SW,225,4.0,11.0,96,0.00,,,0.00,Weather View 32 v70,2013-08-08 13:10:00,
2013-08-08 09:15:00,63.0,62.1,30.40,SSW,202,4.0,11.0,97,0.00,,,0.00,Weather View 32 v70,2013-08-08 13:15:00,
2013-08-08 09:20:00,63.0,62.1,30.39,SSW,202,6.0,11.0,97,0.00,,,0.00,Weather View 32 v70,2013-08-08 13:20:00,
2013-08-08 09:25:00,62.0,61.4,30.39,SSW,202,7.0,11.0,98,0.01,,,0.01,Weather View 32 v70,2013-08-08 13:25:00,
2013-08-08 09:30:00,62.0,61.7,30.39,SSW,202,7.0,11.0,99,0.01,,,0.01,Weather View 32 v70,2013-08-08 13:30:00,
2013-08-08 09:35:00,61.0,61.0,30.39,SSW,202,7.0,10.0,100,0.01,,,0.01,Weather View 32 v70,2013-08-08 13:35:00,
2013-08-08 09:40:00,63.0,62.7,30.40,South,180,4.0,10.0,99,0.02,,,0.02,Weather View 32 v70,2013-08-08 13:40:00,
2013-08-08 09:45:00,62.0,61.7,30.40,SSW,202,4.0,10.0,99,0.04,,,0.04,Weather View 32 v70,2013-08-08 13:45:00,
2013-08-08 09:50:00,62.0,61.7,30.40,SSW,202,5.0,10.0,99,0.04,,,0.04,Weather View 32 v70,2013-08-08 13:50:00,
2013-08-08 09:55:00,62.0,61.7,30.38,SE,135,6.0,10.0,99,0.04,,,0.04,Weather View 32 v70,2013-08-08 13:55:00,
2013-08-08 10:00:00,63.0,62.7,30.39,SSE,157,6.0,11.0,99,0.04,,,0.04,Weather View 32 v70,2013-08-08 14:00:00,
2013-08-08 10:05:00,62.0,61.7,30.40,South,180,0.0,15.0,99,0.04,,,0.04,Weather View 32 v70,2013-08-08 14:05:00,
2013-08-08 10:10:00,62.0,61.4,30.40,SW,225,7.0,15.0,98,0.05,,,0.05,Weather View 32 v70,2013-08-08 14:10:00,
2013-08-08 10:15:00,62.0,61.4,30.39,SSE,157,7.0,15.0,98,0.06,,,0.06,Weather View 32 v70,2013-08-08 14:15:00,
2013-08-08 10:20:00,62.0,61.4,30.39,SSW,202,8.0,15.0,98,0.06,,,0.06,Weather View 32 v70,2013-08-08 14:20:00,
2013-08-08 10:25:00,62.0,61.4,30.39,South,180,2.0,15.0,98,0.07,,,0.08,Weather View 32 v70,2013-08-08 14:25:00,
2013-08-08 10:30:00,62.0,61.4,30.39,SSW,202,7.0,15.0,98,0.08,,,0.09,Weather View 32 v70,2013-08-08 14:30:00,
2013-08-08 10:35:00,62.0,61.4,30.38,SSW,202,10.0,15.0,98,0.08,,,0.09,Weather View 32 v70,2013-08-08 14:35:00,
2013-08-08 10:40:00,62.0,61.4,30.38,SSW,202,5.0,15.0,98,0.07,,,0.09,Weather View 32 v70,2013-08-08 14:40:00,
2013-08-08 10:45:00,62.0,61.1,30.38,SSW,202,12.0,15.0,97,0.05,,,0.09,Weather View 32 v70,2013-08-08 14:45:00,
2013-08-08 10:50:00,62.0,61.1,30.38,South,180,1.0,15.0,97,0.05,,,0.09,Weather View 32 v70,2013-08-08 14:50:00,
2013-08-08 10:55:00,62.0,61.4,30.39,SSW,202,7.0,15.0,98,0.05,,,0.09,Weather View 32 v70,2013-08-08 14:55:00,
2013-08-08 11:00:00,62.0,61.4,30.39,SSW,202,9.0,15.0,98,0.05,,,0.09,Weather View 32 v70,2013-08-08 15:00:00,
2013-08-08 11:05:00,62.0,61.4,30.38,SW,225,6.0,15.0,98,0.05,,,0.09,Weather View 32 v70,2013-08-08 15:05:00,
2013-08-08 11:10:00,62.0,61.1,30.39,SSW,202,13.0,15.0,97,0.04,,,0.09,Weather View 32 v70,2013-08-08 15:10:00,
2013-08-08 11:15:00,62.0,61.1,30.40,WSW,247,9.0,15.0,97,0.03,,,0.09,Weather View 32 v70,2013-08-08 15:15:00,
2013-08-08 11:20:00,61.0,60.1,30.40,SW,225,7.0,16.0,97,0.04,,,0.11,Weather View 32 v70,2013-08-08 15:20:00,
2013-08-08 11:25:00,61.0,60.4,30.40,SSW,202,8.0,16.0,98,0.04,,,0.12,Weather View 32 v70,2013-08-08 15:25:00,
2013-08-08 11:30:00,60.0,59.7,30.39,SW,225,7.0,16.0,99,0.03,,,0.12,Weather View 32 v70,2013-08-08 15:30:00,
2013-08-08 11:35:00,61.0,60.7,30.39,WSW,247,6.0,16.0,99,0.03,,,0.12,Weather View 32 v70,2013-08-08 15:35:00,
2013-08-08 11:40:00,60.0,59.7,30.39,SSE,157,2.0,16.0,99,0.03,,,0.12,Weather View 32 v70,2013-08-08 15:40:00,
2013-08-08 11:45:00,60.0,59.7,30.39,SSW,202,9.0,16.0,99,0.03,,,0.12,Weather View 32 v70,2013-08-08 15:45:00,
2013-08-08 11:50:00,60.0,59.7,30.38,SW,225,8.0,16.0,99,0.03,,,0.12,Weather View 32 v70,2013-08-08 15:50:00,
2013-08-08 11:55:00,60.0,59.7,30.38,SSW,202,10.0,16.0,99,0.03,,,0.12,Weather View 32 v70,2013-08-08 15:55:00,
2013-08-08 12:00:00,61.0,60.7,30.38,WSW,247,9.0,16.0,99,0.03,,,0.12,Weather View 32 v70,2013-08-08 16:00:00,
2013-08-08 12:05:00,61.0,60.4,30.37,SSW,202,9.0,16.0,98,0.03,,,0.12,Weather View 32 v70,2013-08-08 16:05:00,
2013-08-08 12:10:00,60.0,60.0,30.37,SSW,202,5.0,16.0,100,0.03,,,0.12,Weather View 32 v70,2013-08-08 16:10:00,
2013-08-08 12:15:00,60.0,60.0,30.37,South,180,5.0,16.0,100,0.03,,,0.12,Weather View 32 v70,2013-08-08 16:15:00,
2013-08-08 12:20:00,61.0,60.4,30.38,SW,225,8.0,16.0,98,0.02,,,0.12,Weather View 32 v70,2013-08-08 16:20:00,
2013-08-08 12:25:00,62.0,61.1,30.37,South,180,5.0,16.0,97,0.00,,,0.12,Weather View 32 v70,2013-08-08 16:25:00,
2013-08-08 12:30:00,62.0,61.4,30.38,SSW,202,10.0,16.0,98,0.00,,,0.12,Weather View 32 v70,2013-08-08 16:30:00,
2013-08-08 12:35:00,63.0,62.1,30.38,SSE,157,4.0,16.0,97,0.00,,,0.12,Weather View 32 v70,2013-08-08 16:35:00,
2013-08-08 12:40:00,64.0,62.8,30.38,SE,135,7.0,16.0,96,0.00,,,0.12,Weather View 32 v70,2013-08-08 16:40:00,
2013-08-08 12:45:00,63.0,61.2,30.38,SE,135,8.0,16.0,94,0.00,,,0.12,Weather View 32 v70,2013-08-08 16:45:00,
2013-08-08 12:50:00,63.0,61.2,30.38,SW,225,10.0,16.0,94,0.00,,,0.12,Weather View 32 v70,2013-08-08 16:50:00,
2013-08-08 12:55:00,62.0,60.5,30.38,SSE,157,5.0,16.0,95,0.00,,,0.12,Weather View 32 v70,2013-08-08 16:55:00,
2013-08-08 13:00:00,63.0,61.2,30.38,South,180,3.0,16.0,94,0.00,,,0.12,Weather View 32 v70,2013-08-08 17:00:00,
2013-08-08 13:05:00,62.0,60.2,30.38,WNW,292,4.0,14.0,94,0.00,,,0.12,Weather View 32 v70,2013-08-08 17:05:00,
2013-08-08 13:10:00,63.0,61.2,30.38,SSW,202,7.0,14.0,94,0.00,,,0.12,Weather View 32 v70,2013-08-08 17:10:00,
2013-08-08 13:15:00,63.0,60.6,30.37,SW,225,6.0,14.0,92,0.00,,,0.12,Weather View 32 v70,2013-08-08 17:15:00,
2013-08-08 13:20:00,63.0,60.6,30.38,SSW,202,7.0,14.0,92,0.00,,,0.12,Weather View 32 v70,2013-08-08 17:20:00,
2013-08-08 13:25:00,63.0,60.6,30.37,WSW,247,10.0,14.0,92,0.00,,,0.12,Weather View 32 v70,2013-08-08 17:25:00,
2013-08-08 13:30:00,62.0,60.2,30.37,SW,225,7.0,14.0,94,0.00,,,0.12,Weather View 32 v70,2013-08-08 17:30:00,
2013-08-08 13:35:00,62.0,60.2,30.37,SW,225,6.0,14.0,94,0.00,,,0.12,Weather View 32 v70,2013-08-08 17:35:00,
2013-08-08 13:40:00,62.0,60.2,30.36,WSW,247,4.0,14.0,94,0.00,,,0.12,Weather View 32 v70,2013-08-08 17:40:00,
2013-08-08 13:45:00,62.0,60.2,30.36,SW,225,7.0,14.0,94,0.00,,,0.12,Weather View 32 v70,2013-08-08 17:45:00,
2013-08-08 13:50:00,62.0,60.5,30.36,South,180,5.0,12.0,95,0.00,,,0.12,Weather View 32 v70,2013-08-08 17:50:00,
2013-08-08 13:55:00,63.0,61.5,30.36,WSW,247,4.0,12.0,95,0.00,,,0.12,Weather View 32 v70,2013-08-08 17:55:00,
2013-08-08 14:00:00,62.0,60.8,30.36,WSW,247,7.0,12.0,96,0.00,,,0.12,Weather View 32 v70,2013-08-08 18:00:00,
2013-08-08 14:05:00,62.0,61.1,30.36,SE,135,0.0,12.0,97,0.00,,,0.12,Weather View 32 v70,2013-08-08 18:05:00,
2013-08-08 14:10:00,63.0,62.1,30.36,South,180,9.0,12.0,97,0.00,,,0.12,Weather View 32 v70,2013-08-08 18:10:00,
2013-08-08 14:15:00,62.0,61.1,30.36,SW,225,5.0,12.0,97,0.00,,,0.12,Weather View 32 v70,2013-08-08 18:15:00,
2013-08-08 14:20:00,62.0,61.1,30.36,South,180,10.0,12.0,97,0.00,,,0.12,Weather View 32 v70,2013-08-08 18:20:00,
2013-08-08 14:25:00,62.0,61.4,30.36,SSE,157,9.0,12.0,98,0.00,,,0.12,Weather View 32 v70,2013-08-08 18:25:00,
2013-08-08 14:30:00,63.0,62.1,30.35,SSW,202,6.0,12.0,97,0.00,,,0.12,Weather View 32 v70,2013-08-08 18:30:00,
2013-08-08 14:35:00,63.0,62.1,30.36,SW,225,4.0,12.0,97,0.00,,,0.12,Weather View 32 v70,2013-08-08 18:35:00,
2013-08-08 14:40:00,62.0,61.1,30.36,SSW,202,4.0,12.0,97,0.00,,,0.12,Weather View 32 v70,2013-08-08 18:40:00,
2013-08-08 14:45:00,63.0,62.1,30.35,SSW,202,8.0,12.0,97,0.00,,,0.12,Weather View 32 v70,2013-08-08 18:45:00,
2013-08-08 14:50:00,63.0,62.1,30.36,SSW,202,5.0,12.0,97,0.00,,,0.12,Weather View 32 v70,2013-08-08 18:50:00,
2013-08-08 14:55:00,63.0,61.5,30.36,SW,225,7.0,11.0,95,0.00,,,0.12,Weather View 32 v70,2013-08-08 18:55:00,
2013-08-08 15:00:00,63.0,61.8,30.37,SSE,157,2.0,11.0,96,0.00,,,0.12,Weather View 32 v70,2013-08-08 19:00:00,
2013-08-08 15:05:00,63.0,61.5,30.36,South,180,2.0,11.0,95,0.00,,,0.12,Weather View 32 v70,2013-08-08 19:05:00,
2013-08-08 15:10:00,63.0,61.5,30.38,SSW,202,6.0,11.0,95,0.00,,,0.12,Weather View 32 v70,2013-08-08 19:10:00,
2013-08-08 15:15:00,63.0,61.5,30.36,SSW,202,6.0,11.0,95,0.00,,,0.12,Weather View 32 v70,2013-08-08 19:15:00,
2013-08-08 15:20:00,64.0,62.8,30.36,SW,225,8.0,11.0,96,0.00,,,0.12,Weather View 32 v70,2013-08-08 19:20:00,
2013-08-08 15:25:00,64.0,62.8,30.36,SSW,202,4.0,10.0,96,0.00,,,0.12,Weather View 32 v70,2013-08-08 19:25:00,
2013-08-08 15:30:00,63.0,61.8,30.36,WNW,292,1.0,10.0,96,0.00,,,0.12,Weather View 32 v70,2013-08-08 19:30:00,
2013-08-08 15:35:00,63.0,61.8,30.36,SW,225,6.0,10.0,96,0.00,,,0.12,Weather View 32 v70,2013-08-08 19:35:00,
2013-08-08 15:40:00,63.0,62.1,30.36,SSW,202,7.0,10.0,97,0.00,,,0.12,Weather View 32 v70,2013-08-08 19:40:00,
2013-08-08 15:45:00,63.0,61.8,30.36,SSW,202,7.0,10.0,96,0.00,,,0.12,Weather View 32 v70,2013-08-08 19:45:00,
2013-08-08 15:50:00,64.0,63.1,30.36,WSW,247,6.0,10.0,97,0.00,,,0.12,Weather View 32 v70,2013-08-08 19:50:00,
2013-08-08 15:55:00,64.0,63.1,30.36,SSW,202,6.0,10.0,97,0.00,,,0.12,Weather View 32 v70,2013-08-08 19:55:00,
2013-08-08 16:00:00,64.0,63.1,30.36,South,180,9.0,10.0,97,0.00,,,0.12,Weather View 32 v70,2013-08-08 20:00:00,
2013-08-08 16:05:00,64.0,63.1,30.36,WSW,247,3.0,11.0,97,0.00,,,0.12,Weather View 32 v70,2013-08-08 20:05:00,
2013-08-08 16:10:00,64.0,62.8,30.36,SSW,202,8.0,11.0,96,0.00,,,0.12,Weather View 32 v70,2013-08-08 20:10:00,
2013-08-08 16:15:00,64.0,63.1,30.36,SSW,202,7.0,11.0,97,0.00,,,0.12,Weather View 32 v70,2013-08-08 20:15:00,
2013-08-08 16:20:00,64.0,63.1,30.37,SSW,202,2.0,11.0,97,0.00,,,0.12,Weather View 32 v70,2013-08-08 20:20:00,
2013-08-08 16:25:00,64.0,63.1,30.36,SSW,202,7.0,12.0,97,0.00,,,0.12,Weather View 32 v70,2013-08-08 20:25:00,
2013-08-08 16:30:00,64.0,63.1,30.36,SSE,157,5.0,12.0,97,0.00,,,0.12,Weather View 32 v70,2013-08-08 20:30:00,
2013-08-08 16:35:00,64.0,63.1,30.36,SSE,157,7.0,12.0,97,0.00,,,0.12,Weather View 32 v70,2013-08-08 20:35:00,
2013-08-08 16:40:00,64.0,63.1,30.36,SW,225,7.0,12.0,97,0.00,,,0.12,Weather View 32 v70,2013-08-08 20:40:00,
2013-08-08 16:45:00,64.0,62.8,30.36,SW,225,13.0,13.0,96,0.00,,,0.12,Weather View 32 v70,2013-08-08 20:45:00,
2013-08-08 16:50:00,64.0,62.8,30.36,South,180,8.0,13.0,96,0.00,,,0.12,Weather View 32 v70,2013-08-08 20:50:00,
2013-08-08 16:55:00,64.0,63.1,30.35,SW,225,7.0,13.0,97,0.00,,,0.12,Weather View 32 v70,2013-08-08 20:55:00,
2013-08-08 17:00:00,64.0,63.1,30.35,South,180,5.0,13.0,97,0.00,,,0.12,Weather View 32 v70,2013-08-08 21:00:00,
2013-08-08 17:05:00,64.0,62.8,30.35,West,270,1.0,15.0,96,0.00,,,0.12,Weather View 32 v70,2013-08-08 21:05:00,
2013-08-08 17:10:00,64.0,63.1,30.34,SW,225,7.0,15.0,97,0.00,,,0.12,Weather View 32 v70,2013-08-08 21:10:00,
2013-08-08 17:15:00,64.0,63.1,30.35,South,180,7.0,15.0,97,0.00,,,0.12,Weather View 32 v70,2013-08-08 21:15:00,
2013-08-08 17:20:00,64.0,63.1,30.34,South,180,1.0,15.0,97,0.00,,,0.12,Weather View 32 v70,2013-08-08 21:20:00,
2013-08-08 17:25:00,63.0,61.8,30.35,SSE,157,6.0,15.0,96,0.00,,,0.12,Weather View 32 v70,2013-08-08 21:25:00,
2013-08-08 17:30:00,64.0,63.1,30.34,SSE,157,3.0,15.0,97,0.00,,,0.12,Weather View 32 v70,2013-08-08 21:30:00,
2013-08-08 17:35:00,64.0,63.1,30.34,South,180,7.0,15.0,97,0.00,,,0.12,Weather View 32 v70,2013-08-08 21:35:00,
2013-08-08 17:40:00,63.0,62.1,30.34,South,180,3.0,15.0,97,0.00,,,0.12,Weather View 32 v70,2013-08-08 21:40:00,
2013-08-08 17:46:00,63.0,62.1,30.34,SSW,202,8.0,15.0,97,0.00,,,0.12,Weather View 32 v70,2013-08-08 21:46:00,
2013-08-08 17:51:00,63.0,62.1,30.34,SSW,202,3.0,15.0,97,0.00,,,0.12,Weather View 32 v70,2013-08-08 21:51:00,
2013-08-08 17:57:00,63.0,62.1,30.34,SSE,157,5.0,15.0,97,0.00,,,0.12,Weather View 32 v70,2013-08-08 21:57:00,
2013-08-08 18:02:00,63.0,62.1,30.33,South,180,7.0,15.0,97,0.00,,,0.12,Weather View 32 v70,2013-08-08 22:02:00,
2013-08-08 18:07:00,63.0,62.1,30.34,SW,225,4.0,14.0,97,0.00,,,0.12,Weather View 32 v70,2013-08-08 22:07:00,
2013-08-08 18:12:00,63.0,62.4,30.34,SSW,202,4.0,14.0,98,0.00,,,0.12,Weather View 32 v70,2013-08-08 22:12:00,
2013-08-08 18:17:00,63.0,62.7,30.34,WSW,247,5.0,14.0,99,0.00,,,0.12,Weather View 32 v70,2013-08-08 22:17:00,
2013-08-08 18:22:00,63.0,62.7,30.35,WSW,247,8.0,14.0,99,0.00,,,0.12,Weather View 32 v70,2013-08-08 22:22:00,
2013-08-08 18:27:00,63.0,62.7,30.34,South,180,1.0,9.0,99,0.00,,,0.12,Weather View 32 v70,2013-08-08 22:27:00,
2013-08-08 18:32:00,63.0,62.7,30.33,SSE,157,4.0,9.0,99,0.00,,,0.12,Weather View 32 v70,2013-08-08 22:32:00,
2013-08-08 18:38:00,63.0,62.7,30.33,South,180,4.0,9.0,99,0.00,,,0.12,Weather View 32 v70,2013-08-08 22:38:00,
2013-08-08 18:45:00,63.0,62.7,30.34,South,180,6.0,9.0,99,0.00,,,0.12,Weather View 32 v70,2013-08-08 22:45:00,
2013-08-08 18:50:00,63.0,62.7,30.34,SSE,157,3.0,9.0,99,0.00,,,0.12,Weather View 32 v70,2013-08-08 22:50:00,
2013-08-08 18:55:00,63.0,62.7,30.33,SSW,202,5.0,9.0,99,0.00,,,0.12,Weather View 32 v70,2013-08-08 22:55:00,
2013-08-08 19:00:00,63.0,62.7,30.33,SSW,202,6.0,9.0,99,0.00,,,0.12,Weather View 32 v70,2013-08-08 23:00:00,
2013-08-08 19:06:00,63.0,62.7,30.34,WSW,247,6.0,9.0,99,0.00,,,0.12,Weather View 32 v70,2013-08-08 23:06:00,
2013-08-08 19:11:00,63.0,62.7,30.33,South,180,3.0,9.0,99,0.00,,,0.12,Weather View 32 v70,2013-08-08 23:11:00,
2013-08-08 19:16:00,63.0,62.7,30.33,South,180,6.0,9.0,99,0.00,,,0.12,Weather View 32 v70,2013-08-08 23:16:00,
2013-08-08 19:21:00,63.0,63.0,30.34,South,180,2.0,9.0,100,0.00,,,0.12,Weather View 32 v70,2013-08-08 23:21:00,
2013-08-08 19:26:00,63.0,62.7,30.33,SW,225,6.0,9.0,99,0.00,,,0.12,Weather View 32 v70,2013-08-08 23:26:00,
2013-08-08 19:31:00,63.0,63.0,30.33,South,180,3.0,9.0,100,0.00,,,0.12,Weather View 32 v70,2013-08-08 23:31:00,
2013-08-08 19:37:00,63.0,62.7,30.33,South,180,4.0,9.0,99,0.00,,,0.12,Weather View 32 v70,2013-08-08 23:37:00,
2013-08-08 19:42:00,63.0,63.0,30.33,South,180,2.0,9.0,100,0.00,,,0.12,Weather View 32 v70,2013-08-08 23:42:00,
2013-08-08 19:47:00,63.0,62.7,30.33,SSW,202,6.0,9.0,99,0.00,,,0.12,Weather View 32 v70,2013-08-08 23:47:00,
2013-08-08 19:52:00,63.0,63.0,30.33,SSW,202,8.0,9.0,100,0.00,,,0.12,Weather View 32 v70,2013-08-08 23:52:00,
2013-08-08 19:57:00,63.0,63.0,30.32,SSW,202,6.0,8.0,100,0.00,,,0.12,Weather View 32 v70,2013-08-08 23:57:00,
2013-08-08 20:02:00,63.0,63.0,30.32,SSW,202,3.0,8.0,100,0.00,,,0.12,Weather View 32 v70,2013-08-09 00:02:00,
2013-08-08 20:07:00,63.0,63.0,30.32,SSW,202,6.0,8.0,100,0.00,,,0.12,Weather View 32 v70,2013-08-09 00:07:00,
2013-08-08 20:12:00,63.0,63.0,30.33,SE,135,6.0,8.0,100,0.00,,,0.12,Weather View 32 v70,2013-08-09 00:12:00,
2013-08-08 20:17:00,63.0,63.0,30.33,South,180,4.0,8.0,100,0.00,,,0.12,Weather View 32 v70,2013-08-09 00:17:00,
2013-08-08 20:22:00,63.0,63.0,30.34,SSW,202,6.0,8.0,100,0.00,,,0.12,Weather View 32 v70,2013-08-09 00:22:00,
2013-08-08 20:27:00,63.0,63.0,30.34,SSW,202,6.0,8.0,100,0.00,,,0.12,Weather View 32 v70,2013-08-09 00:27:00,
2013-08-08 20:32:00,63.0,63.0,30.34,SSW,202,4.0,8.0,100,0.00,,,0.12,Weather View 32 v70,2013-08-09 00:32:00,
2013-08-08 20:37:00,62.0,62.0,30.34,SSW,202,4.0,8.0,100,0.00,,,0.12,Weather View 32 v70,2013-08-09 00:37:00,
2013-08-08 20:42:00,63.0,63.0,30.34,SSW,202,4.0,8.0,100,0.00,,,0.12,Weather View 32 v70,2013-08-09 00:42:00,
2013-08-08 20:47:00,63.0,63.0,30.34,SSE,157,5.0,8.0,100,0.00,,,0.12,Weather View 32 v70,2013-08-09 00:47:00,
2013-08-08 20:53:00,62.0,62.0,30.34,SSW,202,5.0,8.0,100,0.00,,,0.12,Weather View 32 v70,2013-08-09 00:53:00,
2013-08-08 20:58:00,62.0,62.0,30.34,SW,225,2.0,8.0,100,0.00,,,0.12,Weather View 32 v70,2013-08-09 00:58:00,
2013-08-08 21:03:00,62.0,62.0,30.34,WSW,247,2.0,8.0,100,0.00,,,0.12,Weather View 32 v70,2013-08-09 01:03:00,
2013-08-08 21:08:00,63.0,63.0,30.34,SSW,202,3.0,8.0,100,0.00,,,0.12,Weather View 32 v70,2013-08-09 01:08:00,
2013-08-08 21:13:00,63.0,63.0,30.34,SW,225,4.0,8.0,100,0.01,,,0.13,Weather View 32 v70,2013-08-09 01:13:00,
2013-08-08 21:18:00,63.0,63.0,30.34,SSE,157,3.0,8.0,100,0.01,,,0.13,Weather View 32 v70,2013-08-09 01:18:00,
2013-08-08 21:23:00,63.0,63.0,30.34,South,180,2.0,8.0,100,0.01,,,0.13,Weather View 32 v70,2013-08-09 01:23:00,
2013-08-08 21:29:00,63.0,63.0,30.34,SSW,202,3.0,8.0,100,0.01,,,0.13,Weather View 32 v70,2013-08-09 01:29:00,
2013-08-08 21:34:00,63.0,63.0,30.34,SSW,202,3.0,8.0,100,0.01,,,0.13,Weather View 32 v70,2013-08-09 01:34:00,
2013-08-08 21:39:00,63.0,63.0,30.34,SSE,157,4.0,8.0,100,0.01,,,0.13,Weather View 32 v70,2013-08-09 01:39:00,
2013-08-08 21:44:00,62.0,62.0,30.33,SSW,202,4.0,8.0,100,0.01,,,0.13,Weather View 32 v70,2013-08-09 01:44:00,
2013-08-08 21:49:00,62.0,62.0,30.33,SSW,202,3.0,8.0,100,0.01,,,0.13,Weather View 32 v70,2013-08-09 01:49:00,
2013-08-08 21:54:00,63.0,63.0,30.34,SSW,202,2.0,8.0,100,0.01,,,0.13,Weather View 32 v70,2013-08-09 01:54:00,
2013-08-08 22:00:00,63.0,63.0,30.34,SSW,202,2.0,8.0,100,0.01,,,0.13,Weather View 32 v70,2013-08-09 02:00:00,
2013-08-08 22:05:00,63.0,63.0,30.33,SW,225,6.0,8.0,100,0.01,,,0.13,Weather View 32 v70,2013-08-09 02:05:00,
2013-08-08 22:10:00,63.0,63.0,30.33,SSW,202,6.0,8.0,100,0.01,,,0.13,Weather View 32 v70,2013-08-09 02:10:00,
2013-08-08 22:15:00,62.0,62.0,30.31,South,180,4.0,9.0,100,0.00,,,0.13,Weather View 32 v70,2013-08-09 02:15:00,
2013-08-08 22:20:00,63.0,63.0,30.33,SSW,202,6.0,9.0,100,0.00,,,0.13,Weather View 32 v70,2013-08-09 02:20:00,
2013-08-08 22:25:00,63.0,63.0,30.33,SSW,202,4.0,9.0,100,0.00,,,0.13,Weather View 32 v70,2013-08-09 02:25:00,
2013-08-08 22:30:00,63.0,63.0,30.33,SW,225,4.0,9.0,100,0.00,,,0.13,Weather View 32 v70,2013-08-09 02:30:00,
2013-08-08 22:35:00,63.0,63.0,30.32,SW,225,6.0,9.0,100,0.00,,,0.13,Weather View 32 v70,2013-08-09 02:35:00,
2013-08-08 22:40:00,63.0,63.0,30.33,SW,225,4.0,9.0,100,0.00,,,0.13,Weather View 32 v70,2013-08-09 02:40:00,
2013-08-08 22:45:00,63.0,63.0,30.32,West,270,5.0,9.0,100,0.00,,,0.13,Weather View 32 v70,2013-08-09 02:45:00,
2013-08-08 22:50:00,63.0,63.0,30.32,WSW,247,5.0,9.0,100,0.00,,,0.13,Weather View 32 v70,2013-08-09 02:50:00,
2013-08-08 22:55:00,63.0,63.0,30.32,WSW,247,5.0,9.0,100,0.00,,,0.13,Weather View 32 v70,2013-08-09 02:55:00,
2013-08-08 23:00:00,63.0,63.0,30.32,SSW,202,4.0,9.0,100,0.00,,,0.13,Weather View 32 v70,2013-08-09 03:00:00,
2013-08-08 23:06:00,64.0,64.0,30.32,SW,225,5.0,9.0,100,0.00,,,0.13,Weather View 32 v70,2013-08-09 03:06:00,
2013-08-08 23:11:00,64.0,64.0,30.32,SW,225,1.0,9.0,100,0.00,,,0.13,Weather View 32 v70,2013-08-09 03:11:00,
2013-08-08 23:16:00,63.0,63.0,30.32,NE,45,1.0,9.0,100,0.00,,,0.13,Weather View 32 v70,2013-08-09 03:16:00,
2013-08-08 23:21:00,63.0,63.0,30.32,SW,225,2.0,10.0,100,0.00,,,0.13,Weather View 32 v70,2013-08-09 03:21:00,
2013-08-08 23:27:00,63.0,63.0,30.32,SSW,202,3.0,10.0,100,0.00,,,0.13,Weather View 32 v70,2013-08-09 03:27:00,
2013-08-08 23:32:00,63.0,63.0,30.32,SSW,202,4.0,10.0,100,0.00,,,0.13,Weather View 32 v70,2013-08-09 03:32:00,
2013-08-08 23:37:00,63.0,63.0,30.32,SSW,202,2.0,11.0,100,0.00,,,0.13,Weather View 32 v70,2013-08-09 03:37:00,
2013-08-08 23:42:00,63.0,63.0,30.32,SSE,157,2.0,11.0,100,0.00,,,0.13,Weather View 32 v70,2013-08-09 03:42:00,
2013-08-08 23:47:00,63.0,63.0,30.32,SW,225,4.0,11.0,100,0.00,,,0.13,Weather View 32 v70,2013-08-09 03:47:00,
2013-08-08 23:52:00,63.0,63.0,30.32,SSW,202,4.0,11.0,100,0.00,,,0.13,Weather View 32 v70,2013-08-09 03:52:00,
2013-08-08 23:58:00,63.0,63.0,30.32,SSW,202,6.0,11.0,100,0.00,,,0.13,Weather View 32 v70,2013-08-09 03:58:00,